When you browse on this site, cookies collect data to enhance your experience and personalize the content and advertising you see.
Visit our Privacy Policy to learn more. By continuing to use the site, you agree to this use of cookies and data.
  • en Belgique
  • Liste des pays
  • À 7 jours
  • Température de l'eau
  • Carte satellitaire
  • Carte météo
  • Widgets météo
  • user-avatar
    Se connecter

    Météo par heure à Choumen

    Ce jour, 20 Février, Mercredi

    Heure Température Précipitation Vent Pression Humidité
    00:00 +5°C° 0 mm 2 m/s 732 mmHg 92%
    01:00 +4°C° 0 mm 2 m/s 732 mmHg 91%
    02:00 +5°C° 0 mm 1 m/s 732 mmHg 91%
    03:00 +5°C° 0 mm 1 m/s 732 mmHg 89%
    04:00 +5°C° 0 mm 1 m/s 731 mmHg 87%
    05:00 +5°C° 0 mm 1 m/s 731 mmHg 85%
    06:00 +5°C° 0 mm 1 m/s 731 mmHg 82%
    07:00 +5°C° 0 mm 1 m/s 731 mmHg 79%
    08:00 +6°C° 0 mm 1 m/s 731 mmHg 74%
    09:00 +7°C° 0 mm 2 m/s 731 mmHg 66%
    10:00 +10°C° 0 mm 3 m/s 731 mmHg 57%
    11:00 +12°C° 0 mm 4 m/s 732 mmHg 49%
    12:00 +13°C° 0 mm 4 m/s 731 mmHg 46%
    13:00 +13°C° 0 mm 5 m/s 731 mmHg 43%
    14:00 +14°C° 0 mm 6 m/s 731 mmHg 40%
    15:00 +13°C° 0 mm 5 m/s 731 mmHg 42%
    16:00 +13°C° 0 mm 5 m/s 731 mmHg 44%
    17:00 +12°C° 0 mm 4 m/s 730 mmHg 46%
    18:00 +11°C° 0 mm 4 m/s 731 mmHg 51%
    19:00 +10°C° 0 mm 4 m/s 731 mmHg 56%
    20:00 +8°C° 0 mm 3 m/s 731 mmHg 61%
    21:00 +7°C° 0 mm 4 m/s 732 mmHg 63%
    22:00 +6°C° 0 mm 4 m/s 732 mmHg 65%
    23:00 +6°C° 0 mm 4 m/s 732 mmHg 68%

    Demain, 21 Février, Jeudi

    Heure Température Précipitation Vent Pression Humidité
    00:00 +7°C° 0 mm 3 m/s 733 mmHg 69%
    01:00 +5°C° 0 mm 3 m/s 733 mmHg 71%
    02:00 +6°C° 0 mm 2 m/s 734 mmHg 73%
    03:00 +5°C° 0 mm 2 m/s 734 mmHg 75%
    04:00 +5°C° 0 mm 2 m/s 734 mmHg 77%
    05:00 +5°C° 0 mm 1 m/s 734 mmHg 79%
    06:00 +5°C° 0 mm 1 m/s 735 mmHg 79%
    07:00 +5°C° 0 mm 1 m/s 735 mmHg 79%
    08:00 +5°C° 0 mm 1 m/s 735 mmHg 79%
    09:00 +5°C° 0 mm 2 m/s 736 mmHg 71%
    10:00 +7°C° 0 mm 2 m/s 736 mmHg 64%
    11:00 +8°C° 0 mm 2 m/s 737 mmHg 56%
    12:00 +9°C° 0 mm 2 m/s 737 mmHg 53%
    13:00 +9°C° 0 mm 3 m/s 736 mmHg 50%
    14:00 +10°C° 0 mm 3 m/s 736 mmHg 46%
    15:00 +10°C° 0 mm 3 m/s 736 mmHg 48%
    16:00 +10°C° 0 mm 3 m/s 736 mmHg 50%
    17:00 +9°C° 0 mm 3 m/s 736 mmHg 52%
    18:00 +8°C° 0 mm 3 m/s 736 mmHg 56%
    19:00 +7°C° 0 mm 3 m/s 736 mmHg 60%
    20:00 +6°C° 0 mm 2 m/s 736 mmHg 64%
    21:00 +6°C° 0 mm 2 m/s 736 mmHg 65%
    22:00 +5°C° 0 mm 2 m/s 736 mmHg 66%
    23:00 +5°C° 0 mm 2 m/s 736 mmHg 67%

    Après-demain, 22 Février, Vendredi

    Heure Température Précipitation Vent Pression Humidité
    00:00 +4°C° 0 mm 2 m/s 735 mmHg 67%
    01:00 +4°C° 0 mm 2 m/s 735 mmHg 67%
    02:00 +4°C° 0 mm 2 m/s 735 mmHg 68%
    03:00 +3°C° 0 mm 2 m/s 734 mmHg 68%
    04:00 +3°C° 0 mm 2 m/s 733 mmHg 69%
    05:00 +3°C° 0 mm 2 m/s 733 mmHg 69%
    06:00 +3°C° 0 mm 2 m/s 732 mmHg 69%
    07:00 +2°C° 0 mm 3 m/s 732 mmHg 70%
    08:00 +2°C° 0 mm 3 m/s 732 mmHg 70%
    09:00 +4°C° 0 mm 4 m/s 731 mmHg 65%
    10:00 +5°C° 0 mm 6 m/s 731 mmHg 60%
    11:00 +6°C° 0 mm 7 m/s 730 mmHg 56%
    12:00 +6°C° 0.3 mm 7 m/s 730 mmHg 61%
    13:00 +5°C° 0.3 mm 7 m/s 729 mmHg 66%
    14:00 +5°C° 0.3 mm 6 m/s 728 mmHg 71%
    15:00 +6°C° 0.5 mm 5 m/s 728 mmHg 73%
    16:00 +6°C° 0.5 mm 5 m/s 728 mmHg 76%
    17:00 +6°C° 0.5 mm 4 m/s 727 mmHg 78%
    18:00 +5°C° 0.6 mm 3 m/s 727 mmHg 81%
    19:00 +5°C° 0.6 mm 3 m/s 728 mmHg 85%
    20:00 +5°C° 0.6 mm 3 m/s 728 mmHg 88%
    21:00 +1°C° 0.4 mm 5 m/s 728 mmHg 83%
    22:00 -2°C° 0.4 mm 7 m/s 729 mmHg 78%
    23:00 -5°C° 0.4 mm 9 m/s 729 mmHg 72%

    23 Février, Samedi

    Heure Température Précipitation Vent Pression Humidité
    00:00 -6°C° 0.2 mm 9 m/s 730 mmHg 74%
    01:00 -9°C° 0.2 mm 9 m/s 731 mmHg 75%
    02:00 -10°C° 0.2 mm 9 m/s 732 mmHg 76%
    03:00 -11°C° 0.6 mm 9 m/s 732 mmHg 78%
    04:00 -11°C° 0.6 mm 9 m/s 733 mmHg 80%
    05:00 -12°C° 0.6 mm 9 m/s 734 mmHg 82%
    06:00 -12°C° 0.3 mm 8 m/s 735 mmHg 77%
    07:00 -12°C° 0.3 mm 8 m/s 736 mmHg 71%
    08:00 -12°C° 0.3 mm 8 m/s 737 mmHg 65%
    09:00 -12°C° 0 mm 8 m/s 737 mmHg 63%
    10:00 -11°C° 0 mm 8 m/s 737 mmHg 60%
    11:00 -11°C° 0 mm 8 m/s 738 mmHg 58%
    12:00 -10°C° 0 mm 8 m/s 738 mmHg 57%
    13:00 -10°C° 0 mm 8 m/s 738 mmHg 56%
    14:00 -8°C° 0 mm 7 m/s 738 mmHg 54%
    15:00 -8°C° 0 mm 7 m/s 738 mmHg 54%
    16:00 -9°C° 0 mm 7 m/s 738 mmHg 54%
    17:00 -9°C° 0 mm 7 m/s 739 mmHg 54%
    18:00 -9°C° 0 mm 6 m/s 739 mmHg 58%
    19:00 -10°C° 0 mm 5 m/s 739 mmHg 62%
    20:00 -9°C° 0 mm 4 m/s 740 mmHg 65%
    21:00 -10°C° 0 mm 4 m/s 740 mmHg 66%
    22:00 -10°C° 0 mm 4 m/s 740 mmHg 66%
    23:00 -10°C° 0 mm 4 m/s 740 mmHg 67%

    24 Février, Dimanche

    Heure Température Précipitation Vent Pression Humidité
    00:00 -10°C° 0 mm 4 m/s 740 mmHg 68%
    01:00 -10°C° 0 mm 4 m/s 740 mmHg 69%
    02:00 -10°C° 0 mm 4 m/s 740 mmHg 70%
    03:00 -10°C° 0 mm 4 m/s 740 mmHg 71%
    04:00 -10°C° 0 mm 4 m/s 740 mmHg 71%
    05:00 -10°C° 0 mm 4 m/s 740 mmHg 71%
    06:00 -11°C° 0 mm 5 m/s 740 mmHg 71%
    07:00 -11°C° 0 mm 5 m/s 741 mmHg 71%
    08:00 -11°C° 0 mm 6 m/s 741 mmHg 71%
    09:00 -10°C° 0 mm 6 m/s 741 mmHg 68%
    10:00 -9°C° 0 mm 6 m/s 741 mmHg 65%
    11:00 -8°C° 0 mm 7 m/s 741 mmHg 62%
    12:00 -8°C° 0 mm 7 m/s 741 mmHg 60%
    13:00 -6°C° 0 mm 6 m/s 741 mmHg 59%
    14:00 -6°C° 0 mm 6 m/s 741 mmHg 57%
    15:00 -6°C° 0 mm 6 m/s 741 mmHg 58%
    16:00 -6°C° 0 mm 5 m/s 741 mmHg 58%
    17:00 -6°C° 0 mm 5 m/s 741 mmHg 58%
    18:00 -7°C° 0 mm 4 m/s 741 mmHg 62%
    19:00 -8°C° 0 mm 4 m/s 741 mmHg 67%
    20:00 -7°C° 0 mm 3 m/s 741 mmHg 71%
    21:00 -7°C° 0 mm 3 m/s 741 mmHg 72%
    22:00 -7°C° 0 mm 2 m/s 741 mmHg 73%
    23:00 -7°C° 0 mm 2 m/s 741 mmHg 73%

    25 Février, Lundi

    Heure Température Précipitation Vent Pression Humidité
    00:00 -8°C° 0 mm 3 m/s 741 mmHg 73%
    01:00 -8°C° 0 mm 3 m/s 741 mmHg 73%
    02:00 -8°C° 0 mm 3 m/s 741 mmHg 73%
    03:00 -8°C° 0 mm 3 m/s 740 mmHg 73%
    04:00 -8°C° 0 mm 3 m/s 740 mmHg 73%
    05:00 -9°C° 0 mm 3 m/s 740 mmHg 73%
    06:00 -8°C° 0 mm 3 m/s 740 mmHg 72%
    07:00 -9°C° 0 mm 4 m/s 740 mmHg 71%
    08:00 -9°C° 0 mm 4 m/s 740 mmHg 69%
    09:00 -7°C° 0 mm 5 m/s 740 mmHg 66%
    10:00 -6°C° 0 mm 5 m/s 739 mmHg 63%
    11:00 -4°C° 0 mm 6 m/s 739 mmHg 59%
    12:00 -4°C° 0 mm 6 m/s 739 mmHg 60%
    13:00 -4°C° 0 mm 6 m/s 738 mmHg 62%
    14:00 -3°C° 0 mm 6 m/s 737 mmHg 63%
    15:00 -3°C° 0 mm 6 m/s 737 mmHg 65%
    16:00 -3°C° 0 mm 6 m/s 737 mmHg 67%
    17:00 -2°C° 0 mm 5 m/s 737 mmHg 69%
    18:00 -4°C° 0 mm 5 m/s 736 mmHg 73%
    19:00 -3°C° 0 mm 4 m/s 736 mmHg 76%
    20:00 -4°C° 0 mm 3 m/s 736 mmHg 79%
    21:00 -4°C° 0 mm 4 m/s 736 mmHg 79%
    22:00 -4°C° 0 mm 4 m/s 736 mmHg 78%
    23:00 -4°C° 0 mm 4 m/s 736 mmHg 78%
    Voir plus